Weather reports worldwide

Advertisment
Guernsey, United Kingdom (3894): temperature & dewpoint: 02.07.2020 05:00:00 - 08.07.2020 05:00:00 (BST)Guernsey, United Kingdom (3894): temperature -20cm & temperature -100cm: 02.07.2020 05:00:00 - 08.07.2020 05:00:00 (BST)Guernsey, United Kingdom (3894): wind speed & gusts: 02.07.2020 05:00:00 - 08.07.2020 05:00:00 (BST)Guernsey, United Kingdom (3894): wind direction: 02.07.2020 05:00:00 - 08.07.2020 05:00:00 (BST)Guernsey, United Kingdom (3894): reduced air pressure: 02.07.2020 05:00:00 - 08.07.2020 05:00:00 (BST)Guernsey, United Kingdom (3894): visibility: 02.07.2020 05:00:00 - 08.07.2020 05:00:00 (BST)Guernsey, United Kingdom (3894): precipitation: 02.07.2020 05:00:00 - 08.07.2020 05:00:00 (BST)
Date & Time tt [°C] td [°C] tt -20cm [°C] tt -100cm [°C] ff [km/h] ff [kn] fx [km/h] fx [kn] dd ppp [hPa] vv [km] rr [mm]
08.07.2020 05:00:00 14,3 13,8 - - 28 15 - - W 1018,4 12 -
08.07.2020 04:00:00 14,3 13,5 - - 28 15 - - WSW 1018,6 20 -
08.07.2020 03:00:00 14,3 13,3 - - 24 13 - - WSW 1019,2 10 -
08.07.2020 02:00:00 14,3 13,3 - - 26 14 - - WSW 1019,5 10 -
08.07.2020 01:00:00 14,3 13,2 - - 24 13 - - WSW 1020,1 10 0,0
08.07.2020 00:00:00 14,4 13,1 - - 24 13 - - WSW 1020,4 10 -
07.07.2020 23:00:00 14,4 12,6 - - 21 11 - - WSW 1020,8 10 -
07.07.2020 22:00:00 14,2 12,1 - - 22 12 - - W 1021,2 30 -
07.07.2020 21:00:00 13,9 12,0 - - 18 10 - - W 1021,1 30 -
07.07.2020 20:00:00 14,5 11,6 - - 26 14 - - W 1021,3 30 -
07.07.2020 19:00:00 15,8 11,7 - - 24 13 - - W 1021,5 10 0,0
07.07.2020 18:00:00 15,7 11,1 - - 28 15 - - W 1021,7 40 -
07.07.2020 17:00:00 16,3 11,0 - - 24 13 - - W 1022,2 10 -
07.07.2020 16:00:00 16,4 10,9 - - 26 14 - - WSW 1022,7 10 -
07.07.2020 15:00:00 16,4 11,5 - - 22 12 - - WSW 1023,1 10 -
07.07.2020 14:00:00 15,9 11,5 - - 21 11 - - W 1023,3 10 -
07.07.2020 13:00:00 15,2 10,9 - - 18 10 - - W 1023,6 45 0,0
07.07.2020 12:00:00 15,2 11,0 - - 16 9 - - W 1023,6 10 -
07.07.2020 11:00:00 15,1 11,2 - - 15 8 - - W 1023,9 45 -
07.07.2020 10:00:00 15,0 11,6 17,4 16,7 15 8 - - W 1023,7 45 -
07.07.2020 09:00:00 14,2 11,5 - - 13 7 - - WNW 1023,7 10 -
07.07.2020 08:00:00 14,1 11,9 - - 9 5 - - W 1023,8 10 -
07.07.2020 07:00:00 12,9 11,6 - - 5 3 - - WNW 1023,8 40 0,0
07.07.2020 06:00:00 11,3 10,5 - - 5 3 - - WNW 1024,0 10 -
07.07.2020 05:00:00 11,2 10,8 - - 8 4 - - NNW 1024,1 35 -
07.07.2020 04:00:00 11,7 11,1 - - 11 6 - - NNW 1024,3 10 -
07.07.2020 03:00:00 12,0 11,1 - - 9 5 - - N 1024,6 10 -
07.07.2020 02:00:00 12,6 11,1 - - 11 6 - - NNW 1025,0 35 -
07.07.2020 01:00:00 12,7 11,0 - - 11 6 - - NW 1025,1 10 0,0
07.07.2020 00:00:00 13,0 10,9 - - 15 8 - - NW 1025,3 10 -
06.07.2020 23:00:00 13,2 11,1 - - 16 9 - - WNW 1025,6 10 -
06.07.2020 22:00:00 13,2 11,4 - - 15 8 - - WNW 1025,9 35 -
06.07.2020 21:00:00 13,9 11,3 - - 16 9 - - WNW 1025,4 10 -
06.07.2020 20:00:00 15,1 11,0 - - 18 10 - - W 1025,4 35 -
06.07.2020 19:00:00 15,5 10,7 - - 22 12 - - WNW 1025,5 10 0,0
06.07.2020 18:00:00 15,8 10,5 - - 21 11 - - WNW 1025,2 35 -
06.07.2020 17:00:00 16,3 10,3 - - 24 13 - - W 1025,4 35 -
06.07.2020 16:00:00 16,5 10,7 - - 26 14 - - WNW 1025,0 10 -
06.07.2020 15:00:00 16,2 10,4 - - 28 15 - - WNW 1024,7 35 -
06.07.2020 14:00:00 16,0 10,7 - - 26 14 - - WNW 1024,9 10 -
06.07.2020 13:00:00 16,0 10,1 - - 28 15 - - WNW 1024,7 35 0,0
06.07.2020 12:00:00 16,0 10,3 - - 24 13 - - WNW 1024,5 10 -
06.07.2020 11:00:00 15,2 9,5 - - 28 15 - - WNW 1023,8 10 -
06.07.2020 10:00:00 15,2 10,8 17,2 16,7 26 14 - - WNW 1023,7 10 -
06.07.2020 09:00:00 14,8 10,3 - - 26 14 - - WNW 1023,4 10 -
06.07.2020 08:00:00 14,1 10,3 - - 28 15 - - WNW 1022,7 10 -
06.07.2020 07:00:00 13,5 10,8 - - 22 12 - - WNW 1022,1 10 0,0
06.07.2020 06:00:00 13,1 10,6 - - 24 13 - - WNW 1021,4 10 -
06.07.2020 05:00:00 12,9 10,2 - - 22 12 - - WNW 1021,0 10 -
06.07.2020 04:00:00 13,0 9,7 - - 28 15 - - WNW 1020,7 25 -
06.07.2020 03:00:00 13,0 9,7 - - 28 15 - - WNW 1021,0 10 -
06.07.2020 02:00:00 13,4 9,4 - - 28 15 48 26 WNW 1021,0 25 -
06.07.2020 01:00:00 13,2 9,5 - - 29 16 46 25 WNW 1020,9 10 0,0
06.07.2020 00:00:00 13,3 9,3 - - 31 17 52 28 W 1020,7 10 -
05.07.2020 23:00:00 13,4 9,7 - - 34 18 55 30 W 1020,4 10 -
05.07.2020 22:00:00 13,9 10,5 - - 31 17 48 26 W 1020,3 10 -
05.07.2020 21:00:00 13,8 10,4 - - 28 15 52 28 W 1019,6 30 -
05.07.2020 20:00:00 14,8 10,6 - - 29 16 50 27 W 1019,5 30 -
05.07.2020 19:00:00 15,6 11,0 - - 34 18 48 26 W 1019,3 10 -
05.07.2020 18:00:00 16,5 11,2 - - 34 18 48 26 W 1019,1 10 -
05.07.2020 17:00:00 16,7 11,4 - - 35 19 48 26 W 1018,9 10 -
05.07.2020 16:00:00 16,7 12,1 - - 35 19 46 25 W 1018,8 10 -
05.07.2020 15:00:00 16,9 12,0 - - 35 19 50 27 W 1018,5 30 -
05.07.2020 14:00:00 16,7 12,1 - - 34 18 50 27 W 1018,2 10 -
05.07.2020 13:00:00 16,4 13,2 - - 34 18 - - W 1017,9 10 -
05.07.2020 12:00:00 14,6 13,9 - - 26 14 - - W 1017,7 10 -
05.07.2020 11:00:00 15,3 15,1 - - 29 16 46 25 W 1017,2 10 -
05.07.2020 10:00:00 15,4 15,4 17,0 16,7 31 17 48 26 W 1016,8 1,3 -
05.07.2020 09:00:00 15,3 15,3 - - 37 20 52 28 WSW 1016,4 9 -
05.07.2020 08:00:00 15,1 15,1 - - 31 17 54 29 WSW 1015,8 0,3 -
05.07.2020 07:00:00 15,0 15,0 - - 37 20 52 28 WSW 1015,3 0,3 -
05.07.2020 06:00:00 14,9 14,9 - - 39 21 52 28 WSW 1015,5 0,3 -
05.07.2020 05:00:00 14,8 14,8 - - 37 20 55 30 WSW 1015,5 0,3 -
05.07.2020 04:00:00 14,9 14,9 - - 37 20 57 31 WSW 1015,6 0,3 -
05.07.2020 03:00:00 15,0 15,0 - - 31 17 55 30 WSW 1015,9 0,3 -
05.07.2020 02:00:00 15,0 15,0 - - 39 21 54 29 WSW 1016,2 0,5 -
05.07.2020 01:00:00 15,0 15,0 - - 37 20 52 28 SW 1016,4 0,6 -
05.07.2020 00:00:00 15,0 15,0 - - 34 18 52 28 SW 1016,7 0,3 -
04.07.2020 23:00:00 15,0 15,0 - - 35 19 50 27 WSW 1017,0 1,4 -
04.07.2020 22:00:00 15,1 15,0 - - 34 18 46 25 SW 1016,6 3,0 -
04.07.2020 21:00:00 15,1 15,0 - - 37 20 52 28 WSW 1016,7 8 -
04.07.2020 20:00:00 15,2 15,2 - - 37 20 55 30 WSW 1016,3 0,2 -
04.07.2020 19:00:00 15,3 15,3 - - 35 19 50 27 WSW 1016,2 0,4 -
04.07.2020 18:00:00 15,5 15,5 - - 37 20 54 29 WSW 1016,5 0,5 -
04.07.2020 17:00:00 15,7 15,7 - - 35 19 57 31 WSW 1016,1 0,3 -
04.07.2020 16:00:00 16,3 16,1 - - 41 22 63 34 WSW 1016,3 9 -
04.07.2020 15:00:00 16,7 16,0 - - 35 19 50 27 WSW 1016,1 10 -
04.07.2020 14:00:00 16,7 16,3 - - 34 18 46 25 SW 1016,4 10 -
04.07.2020 13:00:00 16,1 16,0 - - 34 18 52 28 SW 1016,2 10 -
04.07.2020 12:00:00 16,0 16,0 - - 34 18 46 25 SW 1016,3 4,5 -
04.07.2020 11:00:00 15,9 15,9 - - 29 16 - - SW 1016,2 0,2 -
04.07.2020 10:00:00 15,9 15,9 17,7 16,7 29 16 46 25 SW 1015,9 0,1 -
04.07.2020 09:00:00 15,9 15,9 - - 34 18 52 28 SW 1015,5 0,1 -
04.07.2020 08:00:00 15,6 15,6 - - 35 19 48 26 SW 1015,7 0,1 -
04.07.2020 07:00:00 15,4 15,4 - - 29 16 46 25 SW 1015,9 0,3 -
04.07.2020 06:00:00 15,3 15,3 - - 29 16 - - SW 1016,0 2,8 -
04.07.2020 05:00:00 15,1 15,0 - - 31 17 - - SW 1015,8 3,0 -
04.07.2020 04:00:00 15,3 14,6 - - 28 15 - - SW 1016,1 10 -
04.07.2020 03:00:00 15,3 14,1 - - 29 16 - - SW 1016,7 10 -
04.07.2020 02:00:00 15,0 13,9 - - 31 17 - - SW 1017,2 10 -
04.07.2020 01:00:00 15,0 12,6 - - 28 15 52 28 SSW 1018,1 25 -
04.07.2020 00:00:00 15,0 12,6 - - 28 15 - - SSW 1018,1 10 -
03.07.2020 23:00:00 15,2 12,1 - - 29 16 - - SSW 1018,6 30 -
03.07.2020 22:00:00 15,4 11,9 - - 31 17 - - SW 1018,8 10 -
03.07.2020 21:00:00 15,5 11,8 - - 29 16 - - SW 1018,9 10 -
03.07.2020 20:00:00 15,4 12,1 - - 29 16 - - WSW 1019,0 10 -
03.07.2020 19:00:00 15,7 11,4 - - 34 18 46 25 WSW 1019,1 10 0,0
03.07.2020 18:00:00 16,6 11,2 - - 34 18 57 31 WSW 1019,8 10 -
03.07.2020 17:00:00 17,0 10,8 - - 37 20 54 29 W 1019,7 10 -
03.07.2020 16:00:00 17,6 11,5 - - 34 18 50 27 WSW 1020,1 40 -
03.07.2020 15:00:00 17,5 11,8 - - 35 19 46 25 WSW 1020,4 40 -
03.07.2020 14:00:00 16,8 12,7 - - 26 14 - - WSW 1020,4 40 -
03.07.2020 13:00:00 16,9 13,3 - - 31 17 - - SW 1021,0 10 0,0
03.07.2020 12:00:00 16,2 12,7 - - 28 15 - - SW 1021,0 10 -
03.07.2020 11:00:00 15,9 12,7 - - 28 15 - - SW 1021,2 10 -
03.07.2020 10:00:00 15,8 12,6 17,4 16,7 24 13 - - SW 1020,8 10 -
03.07.2020 09:00:00 15,4 12,3 - - 24 13 - - WSW 1020,5 10 -
03.07.2020 08:00:00 14,8 11,9 - - 22 12 - - W 1020,5 10 -
03.07.2020 07:00:00 14,0 11,9 - - 18 10 - - W 1020,6 40 -
03.07.2020 06:00:00 13,1 11,9 - - 15 8 - - W 1020,4 10 -
03.07.2020 05:00:00 13,0 12,6 - - 11 6 - - W 1020,2 10 -
03.07.2020 04:00:00 12,1 11,4 - - 13 7 - - W 1020,1 10 -
03.07.2020 03:00:00 12,9 11,9 - - 15 8 - - W 1020,0 10 -
03.07.2020 02:00:00 13,3 11,7 - - 21 11 - - W 1019,8 10 -
03.07.2020 01:00:00 13,5 12,0 - - 22 12 - - W 1019,8 10 0,0
03.07.2020 00:00:00 13,5 12,3 - - 21 11 - - W 1019,6 10 -
02.07.2020 23:00:00 13,7 12,5 - - 18 10 - - W 1019,5 10 -
02.07.2020 22:00:00 14,2 12,8 - - 21 11 - - W 1019,2 10 -
02.07.2020 21:00:00 14,2 12,7 - - 24 13 - - W 1018,5 10 -
02.07.2020 20:00:00 14,5 12,7 - - 22 12 - - W 1018,1 30 -
02.07.2020 19:00:00 15,7 12,7 - - 28 15 - - W 1017,6 10 0,0
02.07.2020 18:00:00 15,8 13,0 - - 28 15 - - W 1017,2 10 -
02.07.2020 17:00:00 16,2 13,2 - - 28 15 - - W 1017,0 10 -
02.07.2020 16:00:00 15,9 13,3 - - 26 14 - - W 1016,9 25 -
02.07.2020 15:00:00 16,5 13,1 - - 29 16 - - W 1016,5 10 -
02.07.2020 14:00:00 16,0 13,0 - - 28 15 - - WSW - 10 -
02.07.2020 13:00:00 15,9 13,6 - - 24 13 - - WSW 1015,8 10 -
02.07.2020 12:00:00 16,3 13,1 - - 28 15 - - WSW 1015,3 10 -
02.07.2020 11:00:00 15,9 13,2 - - 24 13 - - W 1014,7 35 -
02.07.2020 10:00:00 15,4 13,3 17,5 16,7 22 12 - - W 1014,4 10 -
02.07.2020 09:00:00 15,0 12,4 - - 22 12 - - W 1014,0 10 -
02.07.2020 08:00:00 13,9 12,6 - - 24 13 - - WSW 1013,5 30 -
02.07.2020 07:00:00 13,1 11,2 - - 18 10 - - W 1013,1 10 -
02.07.2020 06:00:00 13,0 12,1 - - 16 9 - - W 1012,8 10 -
02.07.2020 05:00:00 13,6 12,5 - - 16 9 - - W 1012,4 10 -

tt = temperature
td = dewpoint
tt -20cm = temperature -20cm
tt -100cm = temperature -100cm
ff = wind speed
fx = gusts
dd = wind direction
ppp = reduced air pressure
vv = visibility
rr = precipitation

Next stations